This is the latest recevied weather packets stored in our database for station/object KI7JYE. If no packets are shown the sender has not sent any weather packets the latest 10 day(s).
| Time | Temp. | Humidity | Pressure | Rain* | Wind** | Luminosity | Snow |
|---|---|---|---|---|---|---|---|
| 1777589705 | 27.22° C | 30% | 1014.1 hPa | 0 mm | - | 505 W/m² | - |
| 1777589404 | 26.67° C | 30% | 1014.1 hPa | 0 mm | - | 507 W/m² | - |
| 1777589100 | 27.22° C | 31% | 1014.2 hPa | 0 mm | - | 523 W/m² | - |
| 1777588796 | 27.22° C | 32% | 1014.5 hPa | 0 mm | - | 526 W/m² | - |
| 1777588492 | 27.22° C | 32% | 1014.2 hPa | 0 mm | - | 540 W/m² | - |
| 1777588187 | 26.67° C | 31% | 1014.6 hPa | 0 mm | - | 544 W/m² | - |
| 1777587883 | 26.67° C | 30% | 1014.5 hPa | 0 mm | - | 508 W/m² | - |
| 1777587578 | 27.78° C | 34% | 1014.3 hPa | 0 mm | - | 423 W/m² | - |
| 1777587269 | 26.67° C | 34% | 1014.5 hPa | 0 mm | - | 469 W/m² | - |
| 1777586965 | 27.22° C | 35% | 1014.7 hPa | 0 mm | - | 494 W/m² | - |
| 1777586660 | 26.67° C | 36% | 1014.9 hPa | 0 mm | - | 563 W/m² | - |
| 1777586356 | 27.22° C | 37% | 1014.7 hPa | 0 mm | - | 597 W/m² | - |
| 1777586055 | 27.22° C | 36% | 1014.7 hPa | 0 mm | - | 595 W/m² | - |
| 1777585754 | 26.11° C | 36% | 1014.9 hPa | 0 mm | - | 599 W/m² | - |
| 1777585454 | 26.11° C | 38% | 1015 hPa | 0 mm | - | 588 W/m² | - |
| 1777585150 | 26.67° C | 35% | 1015 hPa | 0 mm | - | 570 W/m² | - |
| 1777584845 | 26.11° C | 37% | 1015 hPa | 0 mm | - | 576 W/m² | - |
| 1777584543 | 26.11° C | 37% | 1015 hPa | 0 mm | - | 601 W/m² | - |
| 1777584239 | 26.67° C | 38% | 1015.1 hPa | 0 mm | - | 611 W/m² | - |
| 1777583939 | 25.56° C | 38% | 1015 hPa | 0 mm | - | 610 W/m² | - |
| 1777583635 | 26.11° C | 37% | 1015 hPa | 0 mm | - | 590 W/m² | - |
| 1777583334 | 25.56° C | 37% | 1015.4 hPa | 0 mm | - | 596 W/m² | - |
| 1777583029 | 25.56° C | 39% | 1015.1 hPa | 0 mm | - | 592 W/m² | - |
| 1777582726 | 26.11° C | 37% | 1015.1 hPa | 0 mm | - | 599 W/m² | - |
| 1777582421 | 26.11° C | 37% | 1015.3 hPa | 0 mm | - | 636 W/m² | - |
* Rain latest hour (hover to see other rain measurements)
** Current wind speed in m/s (hover to see current wind gust speed)